Time,TemperatureF,DewpointF,PressureIn,WindDirection,WindDirectionDegrees,WindSpeedMPH,WindSpeedGustMPH,Humidity,HourlyPrecipIn,Conditions,Clouds,dailyrainin,SoftwareType,DateUTC
2013-05-29 00:06:00,60.4,59.0,29.73,SE,128,0.0,0.0,96,0.00,,,0.00,weatherlink.com 1.10,2013-05-29 05:06:00,
2013-05-29 00:21:00,60.3,59.0,29.72,East,86,0.0,0.0,96,0.00,,,0.00,weatherlink.com 1.10,2013-05-29 05:21:00,
2013-05-29 00:36:00,60.0,59.0,29.70,ENE,66,0.0,0.0,96,0.00,,,0.00,weatherlink.com 1.10,2013-05-29 05:36:00,
2013-05-29 00:51:00,59.9,59.0,29.70,South,176,0.0,0.0,96,0.00,,,0.00,weatherlink.com 1.10,2013-05-29 05:51:00,
2013-05-29 01:06:00,59.7,59.0,29.71,ENE,65,0.0,0.0,96,0.00,,,0.00,weatherlink.com 1.10,2013-05-29 06:06:00,
2013-05-29 01:21:00,59.4,58.0,29.70,East,84,0.0,0.0,96,0.00,,,0.00,weatherlink.com 1.10,2013-05-29 06:21:00,
2013-05-29 01:36:00,59.3,58.0,29.70,NNE,29,0.0,0.0,96,0.00,,,0.00,weatherlink.com 1.10,2013-05-29 06:36:00,
2013-05-29 01:51:00,59.1,58.0,29.70,ENE,71,0.0,0.0,96,0.00,,,0.00,weatherlink.com 1.10,2013-05-29 06:51:00,
2013-05-29 02:06:00,59.0,58.0,29.70,ESE,109,0.0,0.0,96,0.00,,,0.00,weatherlink.com 1.10,2013-05-29 07:06:00,
2013-05-29 02:21:00,59.1,58.0,29.70,East,81,0.0,0.0,97,0.01,,,0.01,weatherlink.com 1.10,2013-05-29 07:21:00,
2013-05-29 02:36:00,59.1,58.0,29.69,ENE,57,0.0,0.0,97,0.01,,,0.01,weatherlink.com 1.10,2013-05-29 07:36:00,
2013-05-29 02:51:00,59.7,59.0,29.70,ENE,76,0.0,0.0,97,0.01,,,0.01,weatherlink.com 1.10,2013-05-29 07:51:00,
2013-05-29 03:06:00,59.9,59.0,29.70,ENE,64,0.0,0.0,97,0.01,,,0.01,weatherlink.com 1.10,2013-05-29 08:06:00,
2013-05-29 03:21:00,59.9,59.0,29.70,ENE,71,0.0,0.0,97,0.00,,,0.01,weatherlink.com 1.10,2013-05-29 08:21:00,
2013-05-29 03:36:00,60.0,59.0,29.71,ENE,68,0.0,0.0,97,0.00,,,0.01,weatherlink.com 1.10,2013-05-29 08:36:00,
2013-05-29 03:51:00,60.1,59.0,29.70,East,101,0.0,0.0,97,0.00,,,0.01,weatherlink.com 1.10,2013-05-29 08:51:00,
2013-05-29 04:06:00,60.2,60.0,29.70,East,100,0.0,0.0,98,0.00,,,0.01,weatherlink.com 1.10,2013-05-29 09:06:00,
2013-05-29 04:21:00,60.2,60.0,29.71,East,94,0.0,0.0,98,0.00,,,0.01,weatherlink.com 1.10,2013-05-29 09:21:00,
2013-05-29 04:36:00,60.1,60.0,29.71,East,84,0.0,0.0,98,0.00,,,0.01,weatherlink.com 1.10,2013-05-29 09:36:00,
2013-05-29 04:51:00,60.1,60.0,29.72,East,91,0.0,0.0,98,0.00,,,0.01,weatherlink.com 1.10,2013-05-29 09:51:00,
2013-05-29 05:06:00,59.9,59.0,29.72,SE,140,0.0,0.0,98,0.00,,,0.01,weatherlink.com 1.10,2013-05-29 10:06:00,
2013-05-29 05:21:00,60.2,60.0,29.72,SSE,159,0.0,0.0,98,0.00,,,0.01,weatherlink.com 1.10,2013-05-29 10:21:00,
2013-05-29 05:36:00,60.5,60.0,29.72,SE,140,0.0,0.0,98,0.00,,,0.01,weatherlink.com 1.10,2013-05-29 10:36:00,
2013-05-29 05:51:00,60.6,60.0,29.72,South,170,0.0,0.0,98,0.00,,,0.01,weatherlink.com 1.10,2013-05-29 10:51:00,
2013-05-29 06:06:00,61.2,61.0,29.72,SE,144,0.0,0.0,98,0.00,,,0.01,weatherlink.com 1.10,2013-05-29 11:06:00,
2013-05-29 06:21:00,61.6,61.0,29.72,ESE,115,0.0,0.0,98,0.00,,,0.01,weatherlink.com 1.10,2013-05-29 11:21:00,
2013-05-29 06:36:00,62.0,62.0,29.72,South,171,0.0,0.0,98,0.00,,,0.01,weatherlink.com 1.10,2013-05-29 11:36:00,
2013-05-29 06:51:00,62.4,62.0,29.71,SSE,165,0.0,0.0,98,0.00,,,0.01,weatherlink.com 1.10,2013-05-29 11:51:00,
2013-05-29 07:06:00,62.7,62.0,29.71,SSE,162,0.0,0.0,98,0.00,,,0.01,weatherlink.com 1.10,2013-05-29 12:06:00,
2013-05-29 07:21:00,62.9,62.0,29.71,South,170,0.0,0.0,98,0.00,,,0.01,weatherlink.com 1.10,2013-05-29 12:21:00,
2013-05-29 07:36:00,63.6,63.0,29.71,SSW,193,0.0,0.0,98,0.00,,,0.01,weatherlink.com 1.10,2013-05-29 12:36:00,
2013-05-29 07:51:00,64.8,64.0,29.70,South,178,0.0,0.0,96,0.00,,,0.01,weatherlink.com 1.10,2013-05-29 12:51:00,
2013-05-29 08:06:00,65.8,64.0,29.71,South,175,0.0,0.0,93,0.00,,,0.01,weatherlink.com 1.10,2013-05-29 13:06:00,
2013-05-29 08:21:00,67.1,64.0,29.70,SSE,167,0.0,0.0,89,0.00,,,0.01,weatherlink.com 1.10,2013-05-29 13:21:00,
2013-05-29 08:37:00,68.0,64.0,29.70,South,175,0.0,0.0,87,0.00,,,0.01,weatherlink.com 1.10,2013-05-29 13:37:00,
2013-05-29 08:52:00,68.5,64.0,29.70,South,170,0.0,0.0,86,0.00,,,0.01,weatherlink.com 1.10,2013-05-29 13:52:00,
2013-05-29 09:07:00,69.2,65.0,29.70,SE,145,0.0,0.0,85,0.00,,,0.01,weatherlink.com 1.10,2013-05-29 14:07:00,
2013-05-29 09:22:00,69.8,65.0,29.70,SSW,202,0.0,0.0,84,0.00,,,0.01,weatherlink.com 1.10,2013-05-29 14:22:00,
2013-05-29 09:37:00,71.2,66.0,29.69,SW,218,0.0,0.0,84,0.00,,,0.01,weatherlink.com 1.10,2013-05-29 14:37:00,
2013-05-29 09:52:00,72.3,66.0,29.68,SSW,208,0.0,0.0,80,0.00,,,0.01,weatherlink.com 1.10,2013-05-29 14:52:00,
2013-05-29 10:07:00,72.0,66.0,29.67,South,186,0.0,0.0,81,0.00,,,0.01,weatherlink.com 1.10,2013-05-29 15:07:00,
2013-05-29 10:22:00,72.3,66.0,29.67,SSW,205,0.0,0.0,80,0.00,,,0.01,weatherlink.com 1.10,2013-05-29 15:22:00,
2013-05-29 10:37:00,73.4,67.0,29.67,SW,225,0.0,0.0,79,0.00,,,0.01,weatherlink.com 1.10,2013-05-29 15:37:00,
2013-05-29 10:52:00,73.8,67.0,29.67,South,175,0.0,0.0,79,0.00,,,0.01,weatherlink.com 1.10,2013-05-29 15:52:00,
2013-05-29 11:07:00,74.3,67.0,29.67,SW,219,0.0,0.0,77,0.00,,,0.01,weatherlink.com 1.10,2013-05-29 16:07:00,
2013-05-29 11:22:00,75.1,67.0,29.65,SSE,165,0.0,0.0,76,0.00,,,0.01,weatherlink.com 1.10,2013-05-29 16:22:00,
2013-05-29 11:37:00,74.5,67.0,29.65,SSW,197,0.0,0.0,77,0.00,,,0.01,weatherlink.com 1.10,2013-05-29 16:37:00,
2013-05-29 11:52:00,74.8,67.0,29.67,SSW,193,0.0,0.0,77,0.00,,,0.01,weatherlink.com 1.10,2013-05-29 16:52:00,
2013-05-29 12:07:00,74.3,67.0,29.66,SSW,213,0.0,0.0,79,0.00,,,0.01,weatherlink.com 1.10,2013-05-29 17:07:00,
2013-05-29 12:22:00,73.5,67.0,29.69,South,183,0.0,0.0,80,0.00,,,0.01,weatherlink.com 1.10,2013-05-29 17:22:00,
2013-05-29 12:37:00,67.7,64.0,29.70,SSE,155,0.0,0.0,89,0.15,,,0.16,weatherlink.com 1.10,2013-05-29 17:37:00,
2013-05-29 12:52:00,66.2,63.0,29.68,SSW,200,0.0,0.0,90,0.19,,,0.20,weatherlink.com 1.10,2013-05-29 17:52:00,
2013-05-29 13:07:00,65.5,63.0,29.65,South,172,0.0,0.0,92,0.21,,,0.22,weatherlink.com 1.10,2013-05-29 18:07:00,
2013-05-29 13:22:00,66.1,64.0,29.66,South,178,0.0,0.0,93,0.21,,,0.22,weatherlink.com 1.10,2013-05-29 18:22:00,
2013-05-29 13:37:00,66.8,65.0,29.63,South,183,0.0,0.0,94,0.06,,,0.22,weatherlink.com 1.10,2013-05-29 18:37:00,
2013-05-29 13:52:00,67.7,66.0,29.62,SSW,193,0.0,0.0,93,0.02,,,0.22,weatherlink.com 1.10,2013-05-29 18:52:00,
2013-05-29 14:07:00,69.2,67.0,29.65,South,171,0.0,0.0,92,0.00,,,0.22,weatherlink.com 1.10,2013-05-29 19:07:00,
2013-05-29 14:22:00,71.0,68.0,29.66,SSE,163,0.0,0.0,89,0.00,,,0.22,weatherlink.com 1.10,2013-05-29 19:22:00,
2013-05-29 14:37:00,72.0,68.0,29.66,South,188,0.0,0.0,86,0.00,,,0.22,weatherlink.com 1.10,2013-05-29 19:37:00,
2013-05-29 14:52:00,72.7,68.0,29.64,SE,146,0.0,0.0,85,0.00,,,0.22,weatherlink.com 1.10,2013-05-29 19:52:00,
2013-05-29 15:07:00,72.5,68.0,29.61,South,169,0.0,0.0,85,0.00,,,0.22,weatherlink.com 1.10,2013-05-29 20:07:00,
2013-05-29 15:22:00,72.7,68.0,29.62,South,181,0.0,0.0,85,0.00,,,0.22,weatherlink.com 1.10,2013-05-29 20:22:00,
2013-05-29 15:37:00,73.7,69.0,29.59,SW,226,0.0,0.0,84,0.00,,,0.22,weatherlink.com 1.10,2013-05-29 20:37:00,
2013-05-29 15:52:00,72.8,68.0,29.60,South,190,0.0,0.0,85,0.00,,,0.22,weatherlink.com 1.10,2013-05-29 20:52:00,
2013-05-29 16:07:00,72.0,67.0,29.62,SSW,213,0.0,0.0,84,0.00,,,0.22,weatherlink.com 1.10,2013-05-29 21:07:00,
2013-05-29 16:22:00,72.2,67.0,29.61,South,178,0.0,0.0,84,0.00,,,0.22,weatherlink.com 1.10,2013-05-29 21:22:00,
2013-05-29 16:37:00,71.6,67.0,29.57,SSW,211,0.0,0.0,86,0.00,,,0.22,weatherlink.com 1.10,2013-05-29 21:37:00,
2013-05-29 16:52:00,71.4,67.0,29.58,South,188,0.0,0.0,87,0.00,,,0.22,weatherlink.com 1.10,2013-05-29 21:52:00,
2013-05-29 17:07:00,71.1,67.0,29.59,South,172,0.0,0.0,87,0.00,,,0.22,weatherlink.com 1.10,2013-05-29 22:07:00,
2013-05-29 17:22:00,70.6,67.0,29.59,South,178,0.0,0.0,87,0.00,,,0.22,weatherlink.com 1.10,2013-05-29 22:22:00,
2013-05-29 17:37:00,69.8,67.0,29.60,SSW,201,0.0,0.0,89,0.00,,,0.22,weatherlink.com 1.10,2013-05-29 22:37:00,
2013-05-29 17:52:00,69.3,66.0,29.60,South,190,0.0,0.0,89,0.00,,,0.22,weatherlink.com 1.10,2013-05-29 22:52:00,
2013-05-29 18:07:00,68.6,66.0,29.59,SW,215,0.0,0.0,90,0.00,,,0.22,weatherlink.com 1.10,2013-05-29 23:07:00,
2013-05-29 18:22:00,68.2,66.0,29.57,South,179,0.0,0.0,91,0.00,,,0.22,weatherlink.com 1.10,2013-05-29 23:22:00,
2013-05-29 18:37:00,67.7,64.0,29.58,South,178,0.0,0.0,88,0.00,,,0.22,weatherlink.com 1.10,2013-05-29 23:37:00,
2013-05-29 18:53:00,67.6,64.0,29.58,WSW,241,0.0,0.0,88,0.00,,,0.22,weatherlink.com 1.10,2013-05-29 23:53:00,
2013-05-29 19:08:00,68.2,64.0,29.57,SSE,165,0.0,0.0,87,0.00,,,0.22,weatherlink.com 1.10,2013-05-30 00:08:00,
2013-05-29 19:23:00,68.2,64.0,29.58,SSW,213,0.0,0.0,86,0.00,,,0.22,weatherlink.com 1.10,2013-05-30 00:23:00,
2013-05-29 19:38:00,67.9,64.0,29.58,South,180,0.0,0.0,86,0.00,,,0.22,weatherlink.com 1.10,2013-05-30 00:38:00,
2013-05-29 19:53:00,67.4,64.0,29.57,SSW,200,0.0,0.0,87,0.00,,,0.22,weatherlink.com 1.10,2013-05-30 00:53:00,
2013-05-29 20:08:00,67.0,63.0,29.58,SE,130,0.0,0.0,87,0.00,,,0.22,weatherlink.com 1.10,2013-05-30 01:08:00,
2013-05-29 20:23:00,66.6,63.0,29.59,SSW,200,0.0,0.0,87,0.00,,,0.22,weatherlink.com 1.10,2013-05-30 01:23:00,
2013-05-29 20:38:00,66.4,63.0,29.59,SSE,165,0.0,0.0,87,0.00,,,0.22,weatherlink.com 1.10,2013-05-30 01:38:00,
2013-05-29 20:53:00,66.9,63.0,29.59,SSE,151,0.0,0.0,86,0.00,,,0.22,weatherlink.com 1.10,2013-05-30 01:53:00,
2013-05-29 21:08:00,67.0,63.0,29.59,SSE,152,0.0,0.0,87,0.00,,,0.22,weatherlink.com 1.10,2013-05-30 02:08:00,
2013-05-29 21:23:00,66.7,63.0,29.59,ESE,104,0.0,0.0,89,0.00,,,0.22,weatherlink.com 1.10,2013-05-30 02:23:00,
2013-05-29 21:38:00,66.6,64.0,29.60,SE,140,0.0,0.0,91,0.00,,,0.22,weatherlink.com 1.10,2013-05-30 02:38:00,
2013-05-29 21:53:00,66.6,64.0,29.60,South,177,0.0,0.0,91,0.00,,,0.22,weatherlink.com 1.10,2013-05-30 02:53:00,
2013-05-29 22:08:00,66.7,64.0,29.58,SE,128,0.0,0.0,91,0.00,,,0.22,weatherlink.com 1.10,2013-05-30 03:08:00,
2013-05-29 22:23:00,66.8,64.0,29.59,South,182,0.0,0.0,90,0.00,,,0.22,weatherlink.com 1.10,2013-05-30 03:23:00,
2013-05-29 22:38:00,67.1,65.0,29.61,South,171,0.0,0.0,91,0.00,,,0.22,weatherlink.com 1.10,2013-05-30 03:38:00,
2013-05-29 22:53:00,67.5,65.0,29.61,SSW,200,0.0,0.0,91,0.00,,,0.22,weatherlink.com 1.10,2013-05-30 03:53:00,
2013-05-29 23:08:00,67.6,65.0,29.63,WSW,246,0.0,0.0,92,0.03,,,0.25,weatherlink.com 1.10,2013-05-30 04:08:00,
2013-05-29 23:23:00,66.6,65.0,29.61,SW,217,0.0,0.0,93,0.12,,,0.34,weatherlink.com 1.10,2013-05-30 04:23:00,
2013-05-29 23:38:00,65.4,63.0,29.61,South,190,0.0,0.0,92,0.18,,,0.40,weatherlink.com 1.10,2013-05-30 04:38:00,
2013-05-29 23:53:00,64.8,63.0,29.61,SSW,202,0.0,0.0,93,0.20,,,0.42,weatherlink.com 1.10,2013-05-30 04:53:00,